星链-6320 (STARLINK-6320 )

导读

STARLINK-6320是由美国发射的星链卫星,于北京时间2023年7月16日8点成功发射。它隶属于SpaceX打造的星链卫星互联网星座,主要为全球各地提供高速卫星互联网接入服务,尤其为偏远地区、移动载体等传统网络难以覆盖区域补充网络连接,是星链大规模组网进程中的一员,推动星座服务能力持续完善。

基本信息
目录编号:
57336
目录名称:
STARLINK-6320
国际标识:
2023-099J
轨道中心:
EARTH
卫星名称:
星链-6320
卫星全名:
星链-6320 (STARLINK-6320 )
卫星状态:
在轨 (已飞行1064 天)
发射日期:
2023-07-16 UTC
国别 :
美国 (US)
星等 :
--
轨道信息
数据来源 国际轨道数据
星历时间: 2026-06-14T08:04:28+0800
20小时前
查看轨道信息
半长轴: 6861.196km
偏心率: 0.0002071
轨道倾角: 43.003°
近地点辐角 276.096°
升交点赤经 65.278°
平近点角 83.966°
近地点: 481.638km
远地点: 484.48km
周期: 94.267分钟
每日圈数: 15.275769
详细信息
固有亮度:
5
最大亮度:
2.5
卫星平台:
Starlink v1.5
覆盖范围:
全球
运营商:
太空探索技术公司
运营商所在国:
美国
制造商(研发单位):
太空探索技术公司
制造商所在国:
美国
使用方式:
暂无
卫星简介
星链(Starlink)计划是由太空探索技术公司(SpaceX)提出的一个巨型低轨卫星互联网星座项目,计划在2019年至2024年间在太空搭建由约1.2万颗卫星组成的“星链”网络,其中1584颗将部署在地球上空550千米处的近地轨道,并从2020年开始工作。该卫星仍在工作。
2D轨道图
3D轨道图
轨道高度分析图
轨道倾角分析图
轨道综合分析图
查看轨道综合分析图